Wind_Speed
27 28 30 33 35 36 41 41 36 32 33 28 33 36 35 35 35 31 30 34 32 32 32 33 34 31 30 32 33 34 35 34 33 31 30 30 31 31
26 28 29 30 32 35 38 40 38 39 34 30 28 30 27 28 32 32 34 33 31 32 35 36 39 40 35 33 35 34 36 38 37 35 32 32 32 33
25 28 30 31 33 33 35 35 38 36 33 37 31 31 29 28 29 28 28 29 31 34 34 35 37 37 39 36 35 36 37 37 36 36 34 33 34 34
27 29 31 29 29 31 34 33 34 34 32 36 31 33 31 28 27 29 30 29 30 31 28 28 28 31 33 36 37 36 33 35 36 35 33 34 36 36
22 25 28 27 29 28 29 31 30 34 32 33 31 32 28 27 26 26 26 29 32 34 33 32 31 33 35 35 36 36 37 40 40 41 39 35 35 37
22 24 23 21 23 25 27 26 26 30 27 29 32 31 28 28 27 28 29 30 31 30 30 29 30 31 31 31 31 31 33 33 35 39 37 38 36 38
21 19 17 17 20 21 22 24 21 20 22 26 29 26 27 26 30 29 29 28 28 26 25 27 26 28 29 30 32 30 30 31 31 30 32 34 35 35
20 18 16 14 14 16 17 17 16 17 17 19 23 24 24 22 25 23 21 22 25 24 26 27 25 26 22 22 22 25 28 29 29 29 30 30 31 33
23 19 18 16 15 17 16 17 17 18 20 20 21 21 21 21 20 22 24 25 27 23 24 26 23 26 25 22 23 20 21 25 26 29 30 29 30 31
23 22 19 18 17 17 17 17 18 20 21 21 23 23 23 23 24 25 26 26 26 24 25 28 25 27 29 29 30 27 23 24 27 30 32 32 33 34
10 16 18 19 19 17 15 15 16 18 19 20 20 21 23 23 22 26 28 29 29 30 30 30 32 33 29 32 33 30 27 26 26 26 28 30 31 32
8 9 12 15 19 18 19 17 17 18 18 19 21 22 22 24 25 26 28 29 30 27 23 22 23 29 27 27 27 28 28 27 27 27 28 29 29 29
7 9 11 11 11 10 10 12 16 20 21 21 18 17 16 17 19 18 18 21 22 24 20 18 17 18 20 12 13 16 17 17 17 19 22 24 26 28
8 9 10 13 14 11 8 8 9 10 12 13 13 12 11 12 12 12 11 12 15 15 16 15 15 15 15 17 16 20 23 22 23 25 25 26 28 29
7 9 9 9 7 7 8 7 6 5 5 6 6 6 6 6 9 10 12 12 10 11 13 12 14 16 15 18 20 25 24 21 21 22 20 21 22 23
6 6 7 7 6 5 4 3 3 3 3 4 5 6 8 8 8 6 6 6 6 7 9 10 11 13 15 16 18 21 20 17 17 19 20 20 21 22
7 7 7 7 6 4 3 3 4 3 3 3 3 3 3 4 4 5 5 5 6 7 8 9 12 13 14 15 18 17 18 19 17 16 19 22 21 22
8 9 9 7 5 3 3 2 2 2 2 3 2 3 4 4 4 4 4 5 6 6 7 8 9 10 11 9 10 10 12 16 15 16 19 23 23 19
10 10 9 8 7 5 4 4 4 4 5 4 3 3 4 5 5 4 5 6 5 7 8 10 10 12 13 11 11 9 9 13 17 17 18 20 24 22
10 10 9 7 6 4 3 3 4 5 6 6 6 5 5 4 4 5 6 7 7 9 10 10 9 10 13 15 16 19 15 14 14 18 18 19 21 22
11 10 9 8 6 5 4 4 4 5 5 7 8 8 7 7 6 5 6 7 8 10 10 11 11 8 13 17 20 19 14 11 13 15 13 19 22 22
11 10 9 8 6 6 5 5 5 6 7 7 7 8 9 9 8 7 7 7 8 10 11 10 9 9 12 15 19 19 15 6 8 10 12 13 15 13
12 11 10 9 8 6 5 5 5 6 7 7 7 7 7 8 8 8 9 9 8 8 9 10 9 10 13 14 14 12 10 8 7 6 5 10 12 13
Wind_Direction
272 271 270 267 264 260 257 256 254 255 250 253 248 244 247 250 254 254 250 243 243 243 246 254 260 259 256 262 259 252 248 248 252 252 251 252 250 248
282 278 276 274 268 262 257 256 252 251 259 253 253 255 252 251 252 254 254 255 251 244 245 242 246 251 258 258 257 257 254 248 249 253 251 254 252 250
282 283 282 280 271 268 262 258 255 251 247 257 256 256 255 255 253 253 255 256 252 249 248 246 248 251 252 252 252 252 252 251 247 249 250 257 253 250
283 283 279 278 274 274 264 261 258 255 250 251 250 258 256 256 257 256 252 249 255 253 243 247 248 244 246 252 251 253 250 251 252 254 250 254 252 253
285 288 288 282 275 269 259 256 262 252 247 248 247 256 256 254 255 253 251 252 255 254 252 247 249 253 258 260 257 256 255 254 259 259 255 254 252 249
289 294 295 291 272 261 261 258 257 258 251 243 247 253 256 257 256 256 255 256 258 259 260 258 256 258 262 258 259 255 253 257 258 252 252 256 258 251
287 285 287 288 272 265 263 260 258 254 250 246 250 252 254 254 257 256 256 264 268 263 262 256 263 272 265 263 257 255 253 254 255 250 248 252 254 254
284 284 277 277 275 269 261 257 252 255 251 252 254 255 258 258 257 258 261 259 263 268 265 257 264 284 279 264 256 247 244 245 244 243 246 250 253 251
279 283 280 279 276 270 265 262 257 254 252 256 255 255 256 257 259 257 259 257 260 264 264 270 262 261 273 273 264 259 252 245 246 243 245 250 253 252
274 273 278 275 275 277 274 260 252 250 249 250 256 260 258 259 259 256 258 260 260 261 261 266 264 258 259 270 265 273 270 265 256 246 245 250 250 247
278 272 273 275 272 275 276 274 265 261 256 253 257 262 266 266 266 269 263 263 268 266 264 263 264 267 265 275 276 274 269 268 263 258 255 256 258 256
313 302 297 292 285 277 269 262 268 264 262 270 269 266 264 266 264 262 262 259 263 260 251 244 247 263 265 266 256 258 260 256 252 250 252 253 255 256
337 325 327 327 316 309 286 255 255 257 256 258 259 258 253 255 257 256 251 258 252 253 249 244 239 239 243 244 241 241 244 246 249 256 260 261 262 264
345 344 339 335 335 334 317 295 281 266 251 255 251 252 255 259 260 268 268 261 257 253 252 255 255 251 253 258 266 272 273 271 270 270 270 270 270 270
327 332 343 340 337 334 327 326 319 279 258 244 237 243 252 260 269 271 278 276 265 264 270 274 272 266 265 267 269 266 273 274 273 272 272 272 273 270
335 338 343 348 353 353 349 338 322 294 273 280 289 288 294 292 284 277 272 273 262 261 260 262 264 263 265 269 272 279 286 286 274 283 280 275 273 277
317 321 325 323 319 328 345 357 358 359 348 334 325 316 313 315 301 289 271 275 262 257 260 274 282 286 287 289 287 289 288 287 293 294 285 280 277 279
313 313 312 310 317 327 332 352 35 40 15 359 354 329 323 325 320 319 320 327 328 323 310 297 289 288 289 297 296 305 293 291 288 284 290 294 286 290
310 308 307 314 323 339 358 11 4 5 13 12 12 2 350 342 336 327 326 331 337 331 328 326 324 325 322 319 318 312 303 293 293 292 298 303 298 307
305 300 300 302 308 308 320 339 349 349 346 344 342 337 325 318 326 333 334 331 327 325 331 333 328 314 313 313 302 300 305 298 296 298 304 300 300 308
300 301 298 294 287 275 282 297 311 317 321 325 326 328 331 329 324 322 321 328 323 320 324 327 324 296 298 297 296 303 309 295 285 291 302 304 314 318
289 292 289 283 271 262 264 284 307 322 328 329 328 327 328 332 330 325 319 316 314 315 314 319 327 307 298 289 289 296 308 298 286 299 298 299 304 296
281 282 279 275 266 250 253 273 302 319 330 337 344 342 327 329 326 318 316 313 308 308 313 315 320 315 303 300 292 300 313 315 312 294 285 307 307 304
Height
1427 1426 1425 1425 1425 1426 1427 1428 1428 1427 1427 1428 1429 1432 1435 1438 1441 1444 1445 1448 1452 1455 1456 1461 1464 1464 1466 1466 1467 1470 1472 1474 1476 1477 1478 1480 1481 1483
1420 1419 1418 1417 1417 1417 1417 1419 1419 1419 1419 1423 1423 1426 1428 1430 1433 1435 1437 1440 1443 1446 1447 1451 1454 1454 1458 1457 1457 1461 1463 1465 1466 1468 1469 1471 1472 1474
1414 1412 1410 1409 1408 1408 1409 1410 1410 1411 1411 1413 1417 1418 1421 1422 1425 1427 1429 1430 1433 1436 1439 1442 1444 1444 1447 1449 1449 1449 1453 1455 1455 1458 1458 1461 1463 1464
1408 1406 1403 1402 1400 1400 1401 1401 1402 1403 1404 1405 1409 1410 1413 1415 1418 1419 1420 1422 1424 1427 1429 1431 1434 1436 1438 1440 1440 1443 1442 1446 1446 1448 1447 1451 1453 1455
1402 1400 1396 1394 1392 1392 1392 1392 1394 1395 1394 1397 1400 1403 1406 1408 1410 1411 1412 1413 1415 1418 1420 1422 1425 1427 1429 1430 1432 1431 1431 1435 1438 1438 1437 1440 1442 1444
1396 1393 1390 1387 1386 1386 1387 1388 1387 1387 1388 1390 1393 1396 1398 1399 1401 1402 1403 1406 1408 1410 1412 1414 1415 1417 1420 1421 1422 1422 1424 1427 1426 1425 1427 1429 1431 1433
1390 1388 1386 1384 1382 1382 1382 1381 1381 1381 1382 1384 1386 1389 1390 1392 1392 1394 1396 1398 1398 1401 1403 1404 1406 1409 1410 1413 1414 1414 1414 1414 1415 1415 1417 1418 1420 1421
1384 1383 1382 1380 1380 1378 1378 1377 1378 1377 1377 1379 1381 1382 1384 1385 1387 1388 1389 1391 1391 1393 1394 1394 1396 1398 1403 1405 1405 1404 1402 1403 1405 1406 1407 1408 1409 1410
1379 1378 1377 1376 1375 1374 1373 1373 1372 1372 1373 1374 1375 1376 1377 1378 1381 1381 1382 1383 1383 1386 1387 1385 1387 1390 1396 1396 1396 1396 1394 1395 1396 1396 1398 1399 1400 1401
1373 1373 1372 1371 1371 1370 1369 1367 1367 1367 1368 1369 1370 1371 1371 1372 1373 1375 1375 1375 1376 1378 1378 1377 1380 1383 1388 1386 1386 1387 1387 1387 1386 1388 1388 1389 1389 1390
1368 1368 1367 1367 1366 1365 1365 1364 1363 1363 1363 1364 1364 1365 1365 1366 1367 1368 1367 1369 1368 1369 1372 1371 1374 1376 1377 1377 1377 1378 1378 1378 1378 1379 1380 1380 1381 1382
1366 1365 1364 1362 1360 1360 1359 1359 1358 1358 1358 1358 1358 1358 1358 1359 1359 1360 1360 1360 1362 1363 1364 1365 1367 1369 1369 1368 1369 1369 1369 1368 1369 1370 1371 1372 1372 1373
1364 1363 1361 1359 1357 1356 1355 1354 1353 1353 1353 1353 1353 1353 1353 1353 1353 1353 1353 1354 1355 1357 1357 1357 1358 1359 1361 1361 1361 1362 1362 1362 1362 1362 1362 1363 1363 1364
1364 1361 1359 1358 1356 1354 1353 1352 1351 1350 1349 1349 1349 1348 1349 1349 1350 1349 1350 1349 1350 1350 1351 1352 1353 1354 1354 1355 1356 1356 1356 1356 1355 1354 1354 1354 1354 1354
1362 1360 1359 1357 1354 1353 1352 1351 1351 1350 1348 1348 1347 1347 1347 1347 1347 1347 1346 1345 1345 1346 1346 1346 1347 1346 1348 1349 1348 1350 1350 1350 1348 1347 1346 1345 1346 1345
1359 1358 1357 1356 1354 1352 1351 1349 1348 1348 1348 1348 1347 1346 1345 1345 1345 1345 1345 1345 1345 1344 1344 1344 1344 1345 1345 1345 1345 1344 1344 1343 1342 1341 1339 1339 1339 1338
1359 1357 1354 1354 1353 1351 1349 1348 1347 1347 1346 1346 1346 1345 1345 1345 1344 1344 1344 1344 1344 1343 1343 1342 1341 1340 1340 1339 1338 1338 1337 1335 1334 1332 1331 1330 1332 1331
1356 1355 1353 1351 1350 1350 1349 1347 1346 1345 1345 1344 1344 1344 1344 1343 1343 1343 1343 1343 1342 1341 1340 1339 1338 1337 1336 1335 1333 1332 1331 1329 1329 1328 1327 1324 1322 1323
1354 1352 1350 1349 1349 1347 1347 1346 1345 1345 1345 1344 1342 1340 1341 1341 1341 1341 1341 1341 1340 1339 1338 1337 1336 1335 1333 1331 1330 1329 1328 1327 1325 1324 1323 1321 1316 1316
1352 1350 1348 1347 1346 1347 1345 1344 1343 1344 1344 1343 1343 1341 1339 1338 1338 1338 1338 1337 1337 1337 1336 1336 1335 1334 1332 1331 1329 1327 1326 1323 1321 1319 1318 1317 1315 1312
1350 1349 1346 1346 1345 1344 1345 1344 1342 1342 1341 1341 1342 1341 1339 1337 1335 1334 1334 1335 1335 1334 1333 1333 1333 1332 1330 1328 1326 1324 1321 1320 1318 1316 1315 1312 1310 1307
1347 1346 1345 1344 1343 1343 1342 1342 1341 1341 1340 1338 1337 1338 1338 1337 1336 1334 1332 1331 1331 1332 1331 1330 1330 1329 1329 1327 1323 1320 1319 1317 1315 1314 1312 1310 1308 1303
1344 1343 1342 1342 1341 1341 1341 1341 1340 1340 1339 1337 1336 1336 1335 1336 1336 1334 1333 1331 1329 1327 1327 1328 1328 1326 1325 1324 1322 1318 1315 1314 1314 1312 1310 1307 1303 1299